W5TTY Weather Reports


Display with metric or nautical units.
time (UTC)temp
F
wind
direction
speed
MPH
gust
MPH
rain 1hr
in
rain 24hr
in
rain mn
in
humidity
%
barometer
mb
20260508024828 63 50 3.0 5.0 0.00 0.00 0.00 81 1014.0
20260508024335 63 40 3.0 5.0 0.00 0.00 0.00 81 1014.0
20260508023820 63 38 3.0 5.0 0.00 0.00 0.00 81 1014.0
20260508023327 63 348 2.0 8.0 0.00 0.00 0.00 81 1014.6
20260508022831 63 347 3.0 8.0 0.00 0.00 0.00 81 1014.6
20260508022341 63 330 4.0 6.0 0.00 0.00 0.00 81 1014.6
20260508021826 63 35 3.0 5.0 0.00 0.00 0.00 81 1014.3
20260508021324 63 66 2.0 5.0 0.00 0.00 0.00 81 1013.9
20260508020830 63 52 3.0 5.0 0.00 0.00 0.00 80 1013.7
20260508020318 63 96 4.0 7.0 0.00 0.00 0.00 80 1013.5
20260508015826 63 94 4.0 7.0 0.00 0.00 0.00 81 1013.6
20260508015330 63 92 3.0 6.0 0.00 0.00 0.00 81 1013.8
20260508014835 63 89 3.0 6.0 0.00 0.00 0.00 81 1013.9
20260508014320 63 90 2.0 4.0 0.00 0.00 0.00 81 1014.1
20260508013833 63 90 2.0 6.0 0.00 0.00 0.00 80 1014.1
20260508013337 63 85 2.0 6.0 0.00 0.00 0.00 80 1014.0
20260508012846 64 94 3.0 6.0 0.00 0.00 0.00 80 1014.0
20260508012330 64 43 1.0 3.0 0.00 0.00 0.00 80 1014.2
20260508011821 64 39 2.0 5.0 0.00 0.00 0.00 80 1014.2
20260508011328 64 38 2.0 5.0 0.00 0.00 0.00 80 1014.3
20260508010837 64 41 3.0 4.0 0.00 0.00 0.00 80 1014.4
20260508010347 64 41 1.0 4.0 0.00 0.00 0.00 80 1014.3
20260508005831 64 41 2.0 5.0 0.00 0.00 0.00 80 1014.5
20260508005318 64 32 2.0 4.0 0.00 0.00 0.00 80 1014.4
20260508004826 64 12 2.0 4.0 0.00 0.00 0.00 80 1014.7
20260508004329 64 9 1.0 5.0 0.00 0.00 0.00 80 1014.9
20260508003835 64 19 3.0 5.0 0.00 0.00 0.00 80 1015.0
20260508003323 64 24 3.0 5.0 0.00 0.00 0.00 80 1014.8
20260508002833 65 22 3.0 5.0 0.00 0.00 0.00 80 1014.5
20260508002318 65 11 3.0 6.0 0.00 0.00 0.00 81 1014.9
20260508001826 65 338 3.0 5.0 0.00 0.00 0.00 81 1015.0
20260508001331 65 5 2.0 4.0 0.00 0.00 0.00 81 1014.7
20260508000833 65 5 2.0 6.0 0.00 0.00 0.00 81 1014.8
20260508000320 65 5 3.0 6.0 0.00 0.00 0.00 81 1014.9
20260507235834 65 355 3.0 6.0 0.00 0.00 0.00 81 1014.7
20260507235341 65 355 4.0 6.0 0.00 0.00 0.00 80 1014.8
20260507234827 65 360 3.0 5.0 0.00 0.00 0.00 80 1014.9
20260507234333 65 348 2.0 6.0 0.00 0.00 0.00 81 1014.9
20260507233821 65 339 3.0 8.0 0.00 0.00 0.00 81 1015.0
20260507233326 65 346 3.0 8.0 0.00 0.00 0.00 81 1015.0
20260507232900 65 19 3.0 9.0 0.00 0.00 0.00 81 1015.0
20260507232327 65 333 3.0 9.0 0.00 0.00 0.00 81 1015.1
20260507231831 66 15 4.0 9.0 0.00 0.00 0.00 81 1014.9
20260507231337 65 355 4.0 9.0 0.00 0.00 0.00 81 1014.9
20260507230826 65 5 6.0 9.0 0.00 0.00 0.00 81 1014.7
20260507230335 65 26 6.0 9.0 0.00 0.00 0.00 81 1014.7
20260507225844 65 44 4.0 7.0 0.00 0.00 0.00 81 1014.7
20260507225348 66 55 3.0 8.0 0.00 0.00 0.00 81 1015.0
20260507224836 66 49 3.0 7.0 0.00 0.00 0.00 81 1015.2
20260507224324 66 32 5.0 10.0 0.00 0.00 0.00 82 1015.2
20260507223827 65 23 5.0 10.0 0.00 0.00 0.00 82 1015.3
20260507223337 65 26 5.0 9.0 0.00 0.00 0.00 82 1015.2
20260507222851 65 24 5.0 9.0 0.00 0.00 0.00 81 1015.2
20260507222333 65 342 4.0 15.0 0.00 0.00 0.00 81 1015.3
20260507221820 65 24 6.0 15.0 0.00 0.00 0.00 81 1015.2
20260507221349 66 322 9.0 15.0 0.00 0.00 0.00 81 1015.0
20260507220835 66 355 10.0 15.0 0.00 0.00 0.00 82 1014.9
20260507220322 66 341 8.0 13.0 0.00 0.00 0.00 82 1015.2
20260507215825 65 5 6.0 13.0 0.00 0.00 0.00 82 1015.2
20260507215357 65 325 7.0 13.0 0.00 0.00 0.00 82 1015.4
20260507214845 65 9 6.0 12.0 0.00 0.00 0.00 82 1015.4
20260507214349 65 349 4.0 11.0 0.00 0.00 0.00 82 1015.7
20260507213834 65 40 5.0 12.0 0.00 0.00 0.00 82 1015.8
20260507213319 65 355 6.0 13.0 0.00 0.00 0.00 82 1015.4
20260507212854 66 355 5.0 14.0 0.00 0.00 0.00 82 1015.4
20260507212319 65 360 7.0 14.0 0.00 0.00 0.00 82 1015.2
20260507211828 65 32 4.0 10.0 0.00 0.00 0.00 83 1015.1
20260507211334 65 20 5.0 10.0 0.00 0.00 0.00 82 1015.1
20260507210822 65 355 5.0 11.0 0.00 0.00 0.00 82 1015.0
20260507210327 65 41 4.0 11.0 0.00 0.00 0.00 82 1014.9
20260507205836 65 53 5.0 11.0 0.00 0.00 0.00 82 1015.0
20260507205324 66 46 5.0 9.0 0.00 0.00 0.00 83 1014.8
20260507204829 66 58 3.0 10.0 0.00 0.00 0.00 83 1015.0
20260507204318 66 28 6.0 11.0 0.00 0.00 0.00 83 1015.2
20260507203819 66 64 4.0 8.0 0.00 0.00 0.00 83 1015.4
20260507203324 66 37 2.0 11.0 0.00 0.00 0.00 83 1015.6
20260507202840 66 19 4.0 14.0 0.00 0.00 0.00 83 1015.9
20260507202325 66 11 5.0 11.0 0.00 0.00 0.00 83 1016.0
20260507201828 66 17 8.0 12.0 0.00 0.00 0.00 83 1015.7
20260507201337 66 11 7.0 13.0 0.00 0.00 0.00 83 1015.7
20260507200820 66 28 8.0 13.0 0.00 0.00 0.00 84 1015.8
20260507200328 66 355 5.0 12.0 0.00 0.00 0.00 84 1015.9
20260507195903 66 36 6.0 12.0 0.00 0.00 0.00 84 1016.0
20260507195318 66 67 4.0 13.0 0.00 0.00 0.00 84 1016.1
20260507194831 66 360 6.0 13.0 0.00 0.00 0.00 84 1016.5
20260507194357 66 50 5.0 12.0 0.00 0.00 0.00 84 1016.8
20260507193821 67 341 3.0 12.0 0.00 0.00 0.00 84 1016.8
20260507193327 66 336 7.0 12.0 0.00 0.00 0.00 85 1016.9
20260507192830 66 5 4.0 12.0 0.00 0.00 0.00 85 1017.2
20260507192335 66 26 6.0 15.0 0.00 0.00 0.00 85 1016.2
20260507191819 65 20 7.0 15.0 0.00 0.00 0.00 85 1016.9
20260507191334 65 54 9.0 14.0 0.00 0.00 0.00 85 1016.4
20260507190841 65 46 5.0 14.0 0.00 0.00 0.00 85 1016.5
20260507190325 65 62 5.0 14.0 0.00 0.00 0.00 85 1016.2
20260507185831 65 46 8.0 16.0 0.00 0.00 0.00 85 1016.2
20260507185335 66 22 8.0 14.0 0.00 0.00 0.00 85 1016.6
20260507184841 66 17 8.0 15.0 0.00 0.00 0.00 85 1016.6
20260507184352 66 29 7.0 15.0 0.00 0.00 0.00 86 1016.8
20260507183835 66 350 8.0 13.0 0.00 0.00 0.00 86 1017.1
20260507183320 65 31 4.0 12.0 0.00 0.00 0.00 86 1017.1
20260507182825 65 351 6.0 11.0 0.00 0.00 0.00 86 1017.4
20260507182329 64 339 7.0 12.0 0.00 0.00 0.00 86 1017.5
20260507181837 64 346 4.0 12.0 0.00 0.00 0.00 86 1016.7
20260507181321 64 32 8.0 12.0 0.00 0.00 0.00 86 1016.9
20260507180832 64 44 3.0 8.0 0.00 0.00 0.00 86 1017.4
20260507180342 65 56 3.0 9.0 0.00 0.00 0.00 86 1017.8
20260507175828 65 5 5.0 12.0 0.00 0.00 0.00 87 1018.1
20260507175332 64 314 6.0 12.0 0.00 0.00 0.00 87 1018.0
20260507174839 64 5 5.0 11.0 0.00 0.00 0.00 87 1017.9
20260507174319 64 27 6.0 11.0 0.00 0.00 0.00 87 1017.1
20260507173821 63 53 8.0 11.0 0.00 0.00 0.00 87 1017.2
20260507173333 63 63 5.0 12.0 0.00 0.00 0.00 87 1017.4
20260507172838 63 44 6.0 16.0 0.00 0.00 0.00 87 1017.1
20260507172320 62 10 9.0 13.0 0.00 0.00 0.00 87 1017.4
20260507171825 62 87 6.0 11.0 0.00 0.00 0.00 87 1017.0
20260507171328 61 59 6.0 13.0 0.00 0.00 0.00 87 1017.2
20260507170834 61 344 5.0 14.0 0.00 0.00 0.00 87 1017.4
20260507170319 61 20 6.0 14.0 0.00 0.00 0.00 87 1017.3
20260507165827 61 18 7.0 13.0 0.00 0.00 0.00 87 1017.4
20260507165331 61 51 7.0 12.0 0.00 0.00 0.00 87 1017.8
20260507164818 61 360 8.0 11.0 0.00 0.00 0.00 87 1017.5
20260507164321 61 12 4.0 9.0 0.00 0.00 0.00 87 1017.6
20260507163838 61 57 5.0 9.0 0.00 0.00 0.00 87 1017.8
20260507163344 61 350 3.0 8.0 0.00 0.00 0.00 87 1017.9
20260507162829 61 316 4.0 10.0 0.00 0.00 0.00 87 1018.3
20260507162333 61 348 4.0 10.0 0.00 0.00 0.00 87 1018.1
20260507161837 61 5 3.0 10.0 0.00 0.00 0.00 87 1017.9
20260507161351 60 18 6.0 11.0 0.00 0.00 0.00 87 1018.1
20260507160834 60 39 7.0 12.0 0.00 0.00 0.00 87 1017.7
20260507160344 60 348 9.0 13.0 0.00 0.00 0.00 87 1017.5
20260507155828 61 347 8.0 15.0 0.00 0.00 0.00 87 1017.6
20260507155336 60 11 8.0 15.0 0.00 0.00 0.00 88 1017.5
20260507154845 60 39 10.0 14.0 0.00 0.00 0.00 88 1017.3
20260507154330 60 312 8.0 14.0 0.00 0.00 0.00 88 1017.4
20260507153819 60 32 10.0 14.0 0.00 0.00 0.00 88 1017.2
20260507153327 60 355 8.0 15.0 0.00 0.00 0.00 88 1017.2
20260507152831 60 355 9.0 15.0 0.00 0.00 0.00 88 1017.2
20260507152337 60 355 10.0 18.0 0.00 0.00 0.00 88 1016.8
20260507151844 60 28 10.0 18.0 0.00 0.00 0.00 88 1016.9
20260507151327 60 34 10.0 14.0 0.00 0.00 0.00 88 1017.2
20260507150833 60 24 11.0 14.0 0.00 0.00 0.00 88 1017.4
20260507150323 59 335 7.0 14.0 0.00 0.00 0.00 88 1017.5
20260507145829 59 31 7.0 14.0 0.00 0.00 0.00 88 1017.4
20260507145339 59 32 8.0 14.0 0.00 0.00 0.00 88 1017.5
20260507144845 59 41 7.0 15.0 0.00 0.00 0.00 88 1018.0
20260507144327 59 351 8.0 14.0 0.00 0.00 0.00 88 1017.8
20260507143832 58 40 6.0 15.0 0.00 0.00 0.00 88 1017.8
20260507143319 58 19 6.0 17.0 0.00 0.00 0.00 88 1017.7
20260507142852 58 348 11.0 17.0 0.00 0.00 0.00 88 1017.6
20260507142331 58 344 10.0 15.0 0.00 0.00 0.00 88 1017.5
20260507141836 58 32 8.0 15.0 0.00 0.00 0.00 88 1017.4
20260507141323 58 360 8.0 14.0 0.00 0.00 0.00 88 1017.6
20260507140847 58 13 9.0 17.0 0.00 0.00 0.00 88 1017.4
20260507140334 58 29 8.0 17.0 0.00 0.00 0.00 88 1017.8
20260507135847 58 328 8.0 21.0 0.00 0.00 0.00 88 1018.1
20260507135329 58 5 10.0 21.0 0.00 0.00 0.00 88 1018.3
20260507134832 58 5 9.0 18.0 0.00 0.00 0.00 88 1018.3
20260507134338 58 329 9.0 18.0 0.00 0.00 0.00 88 1018.4
20260507133821 58 10 6.0 14.0 0.00 0.00 0.00 88 1018.2
20260507133333 58 349 7.0 14.0 0.00 0.00 0.00 88 1017.9
20260507132324 58 12 10.0 18.0 0.00 0.00 0.00 88 1017.5
20260507131338 57 33 10.0 19.0 0.00 0.00 0.00 87 1017.6
20260507130823 58 35 11.0 18.0 0.00 0.00 0.00 87 1017.6
20260507130327 58 340 10.0 18.0 0.00 0.00 0.00 87 1017.9
20260507125834 58 346 8.0 14.0 0.00 0.00 0.00 87 1017.8
20260507125318 58 33 7.0 18.0 0.00 0.00 0.00 87 1017.6
20260507124820 58 360 10.0 18.0 0.00 0.00 0.00 87 1017.5
20260507124322 58 5 8.0 14.0 0.00 0.00 0.00 87 1017.5
20260507123854 58 360 7.0 15.0 0.00 0.00 0.00 87 1017.6
20260507123321 58 333 6.0 15.0 0.00 0.00 0.00 87 1017.3
20260507122830 58 355 5.0 10.0 0.00 0.00 0.00 87 1017.1
20260507122336 58 37 4.0 9.0 0.00 0.00 0.00 87 1017.2
20260507121823 58 21 5.0 13.0 0.00 0.00 0.00 87 1017.3
20260507121328 58 45 7.0 13.0 0.00 0.00 0.00 87 1017.3
20260507120833 58 17 6.0 14.0 0.00 0.00 0.00 87 1017.4
20260507120335 58 344 5.0 16.0 0.00 0.00 0.00 87 1017.3
20260507115821 58 9 4.0 16.0 0.00 0.00 0.00 87 1017.0
20260507115321 58 11 8.0 16.0 0.00 0.00 0.00 87 1016.7
20260507114824 58 24 10.0 17.0 0.00 0.00 0.00 87 1016.4
20260507114356 59 41 10.0 17.0 0.00 0.00 0.00 87 1016.0
20260507113823 59 349 8.0 17.0 0.00 0.00 0.00 87 1016.0
20260507113328 59 5 5.0 15.0 0.00 0.00 0.00 87 1016.1
20260507112834 59 339 7.0 15.0 0.00 0.00 0.00 87 1016.0
20260507025326 62 5 7.0 13.0 0.00 0.00 0.00 85 1014.0